Date String (YYYY-MM-DD hh:mm:ss) UTC,Instrument flags,Ambient pressure (hPa),Sample flow (lpm),Bypass flow (lpm),Sample temperature (°C),Ambient temperature (°C),ASC tube jacket temperature (°C),LED temperature (°C),Box temperature (°C),Sample RH (%),Span deviation,Mass concentration (μg/m³),Mass concentration (μg/m³),Mass concentration (μg/m³)
DateTimeUTC,F1_M11,P_M11,Q1_M11,Q2_M11,T1_M11,T2_M11,T3_M11,T4_M11,T5_M11,U1_M11,ZSPAN_M11,X0_M11,X2_M11,X1_M11
2022-02-26 19:00:00,,0831.4,4.99,0.00,23.2,22.5,00.0,32.1,25.0,06.8,0000.5,0017.57,0010.49,0009.80
2022-02-26 19:01:00,,0831.3,5.00,0.00,23.2,22.5,00.0,32.1,25.0,06.6,0000.4,0017.51,0010.44,0009.76
2022-02-26 19:02:00,,0831.2,5.00,0.00,23.2,22.5,00.0,32.1,25.0,06.5,0000.4,0016.27,0010.37,0009.70
2022-02-26 19:03:00,,0831.2,5.00,0.00,23.2,22.5,00.0,32.1,25.0,06.6,0000.2,0015.83,0010.35,0009.69
2022-02-26 19:04:00,,0831.1,5.00,0.00,23.2,22.5,00.0,32.1,25.0,06.8,0000.3,0015.78,0010.38,0009.71
2022-02-26 19:05:00,,0831.1,5.00,0.00,23.2,22.5,00.0,32.1,25.0,06.7,0000.3,0015.69,0010.42,0009.77
2022-02-26 19:06:00,,0831.2,5.00,0.00,23.2,22.5,00.0,32.1,25.0,06.8,0000.2,0015.74,0010.49,0009.85
2022-02-26 19:07:00,,0831.2,5.01,0.00,23.2,22.5,00.0,32.1,25.0,06.6,-000.0,0016.03,0010.66,0010.00
2022-02-26 19:08:00,,0831.2,4.99,0.00,23.2,22.4,00.0,32.1,25.0,06.7,-000.1,0015.73,0010.82,0010.15
2022-02-26 19:09:00,,0831.2,4.99,0.00,23.2,22.4,00.0,32.1,24.9,06.9,-000.2,0015.26,0011.01,0010.32
2022-02-26 19:10:00,,0831.2,5.00,0.00,23.1,22.4,00.0,32.1,24.9,06.9,-000.6,0015.91,0011.15,0010.46
2022-02-26 19:11:00,,0831.2,5.00,0.00,23.1,22.4,00.0,32.1,24.9,07.0,-000.7,0016.39,0011.33,0010.66
2022-02-26 19:12:00,,0831.1,5.00,0.00,23.1,22.4,00.0,32.1,24.9,06.9,-000.6,0016.70,0011.56,0010.89
2022-02-26 19:13:00,,0831.1,5.00,0.00,23.1,22.4,00.0,32.1,24.9,07.0,-000.6,0016.95,0011.82,0011.13
2022-02-26 19:14:00,,0831.0,5.00,0.00,23.1,22.4,00.0,32.1,24.9,07.0,-000.2,0017.16,0012.03,0011.32
2022-02-26 19:15:00,,0831.0,5.00,0.00,23.1,22.3,00.0,32.1,24.9,07.0,-000.0,0017.38,0012.21,0011.47
2022-02-26 19:16:00,,0831.0,5.00,0.00,23.1,22.3,00.0,32.1,24.9,07.3,0000.0,0017.69,0012.41,0011.61
2022-02-26 19:17:00,,0831.0,4.99,0.00,23.1,22.4,00.0,32.1,24.9,07.1,-000.1,0017.90,0012.54,0011.74
2022-02-26 19:18:00,,0831.0,5.00,0.00,23.1,22.4,00.0,32.1,24.9,07.1,-000.3,0017.74,0012.59,0011.83
2022-02-26 19:19:00,,0831.0,4.99,0.00,23.1,22.4,00.0,32.1,24.9,07.0,-000.2,0017.77,0012.71,0011.93
2022-02-26 19:20:00,,0831.0,5.00,0.00,23.1,22.4,00.0,32.1,24.8,06.9,-000.5,0017.63,0012.78,0012.01
2022-02-26 19:21:00,,0831.0,5.00,0.00,23.1,22.4,00.0,32.1,24.8,06.9,-000.6,0017.68,0012.87,0012.09
2022-02-26 19:22:00,,0831.0,5.00,0.00,23.1,22.4,00.0,32.1,24.9,06.8,-000.5,0017.68,0012.95,0012.14
2022-02-26 19:23:00,,0831.0,4.98,0.00,23.1,22.4,00.0,32.1,24.9,06.9,-000.7,0017.98,0013.01,0012.18
2022-02-26 19:24:00,,0831.0,5.00,0.00,23.1,22.5,00.0,32.1,25.0,07.3,-000.6,0017.93,0012.96,0012.16
2022-02-26 19:25:00,,0831.0,5.00,0.00,23.2,22.5,00.0,32.1,25.0,07.2,-000.8,0018.04,0012.98,0012.16
2022-02-26 19:26:00,,0830.9,5.00,0.00,23.2,22.5,00.0,32.1,25.0,07.2,-001.1,0018.00,0012.93,0012.15
2022-02-26 19:27:00,,0830.9,5.00,0.00,23.2,22.5,00.0,32.1,25.0,07.0,-001.0,0017.94,0012.90,0012.17
2022-02-26 19:28:00,,0831.0,4.98,0.00,23.2,22.5,00.0,32.1,25.0,07.1,-000.7,0017.82,0012.88,0012.18
2022-02-26 19:29:00,,0830.9,5.00,0.00,23.2,22.5,00.0,32.1,25.0,07.1,-000.4,0017.86,0012.92,0012.20
2022-02-26 19:30:00,,0830.9,5.00,0.00,23.2,22.5,00.0,32.1,25.0,07.3,-000.8,0017.95,0012.93,0012.20
2022-02-26 19:31:00,,0830.9,5.00,0.00,23.2,22.5,00.0,32.1,25.0,07.4,-000.7,0018.55,0012.95,0012.22
2022-02-26 19:32:00,,0830.9,5.00,0.00,23.2,22.5,00.0,32.1,25.0,07.4,-000.2,0018.14,0012.96,0012.23
2022-02-26 19:33:00,,0830.9,5.00,0.00,23.2,22.5,00.0,32.1,25.1,07.5,0000.1,0017.65,0012.97,0012.25
2022-02-26 19:34:00,,0830.9,5.01,0.00,23.2,22.5,00.0,32.1,25.0,07.5,0000.1,0017.20,0012.92,0012.25
2022-02-26 19:35:00,,0830.9,5.00,0.00,23.2,22.5,00.0,32.1,25.1,07.4,0000.1,0017.22,0012.98,0012.27
2022-02-26 19:36:00,,0830.9,5.00,0.00,23.2,22.5,00.0,32.1,25.1,07.7,0000.2,0017.24,0013.01,0012.33
2022-02-26 19:37:00,,0830.9,4.99,0.00,23.3,22.6,00.0,32.1,25.1,07.7,0000.2,0017.55,0013.16,0012.40
2022-02-26 19:38:00,,0830.9,5.00,0.00,23.3,22.6,00.0,32.2,25.1,07.7,-000.1,0017.54,0013.19,0012.43
2022-02-26 19:39:00,,0830.9,4.99,0.00,23.3,22.6,00.0,32.2,25.1,07.7,-000.4,0017.74,0013.30,0012.49
2022-02-26 19:40:00,,0830.9,5.01,0.00,23.3,22.6,00.0,32.2,25.1,07.3,-000.4,0018.15,0013.41,0012.56
2022-02-26 19:41:00,,0830.9,5.00,0.00,23.3,22.6,00.0,32.2,25.1,07.7,-000.0,0018.26,0013.51,0012.64
2022-02-26 19:42:00,,0830.9,5.01,0.00,23.3,22.6,00.0,32.2,25.1,07.6,-000.0,0018.05,0013.59,0012.71
2022-02-26 19:43:00,,0830.9,5.00,0.00,23.3,22.6,00.0,32.2,25.1,07.3,-000.2,0018.09,0013.66,0012.79
2022-02-26 19:44:00,,0830.9,5.00,0.00,23.3,22.5,00.0,32.2,25.1,07.2,-000.4,0018.25,0013.74,0012.88
2022-02-26 19:45:00,,0830.9,5.00,0.00,23.3,22.5,00.0,32.2,25.1,07.2,-000.4,0018.54,0013.89,0013.01
2022-02-26 19:46:00,,0830.9,5.00,0.00,23.3,22.6,00.0,32.2,25.1,07.2,-000.4,0018.82,0014.07,0013.16
2022-02-26 19:47:00,,0830.9,5.01,0.00,23.3,22.6,00.0,32.2,25.1,07.4,-000.2,0019.28,0014.19,0013.25
2022-02-26 19:48:00,,0830.9,5.01,0.00,23.3,22.6,00.0,32.2,25.1,07.5,-000.1,0020.44,0014.22,0013.33
2022-02-26 19:49:00,,0830.9,5.00,0.00,23.3,22.7,00.0,32.2,25.1,07.5,0000.6,0020.59,0014.33,0013.40
2022-02-26 19:50:00,,0830.9,5.00,0.00,23.4,22.7,00.0,32.2,25.2,07.6,0000.8,0020.57,0014.37,0013.46
2022-02-26 19:51:00,,0830.9,5.00,0.00,23.4,22.7,00.0,32.2,25.2,07.2,0000.6,0020.43,0014.44,0013.56
2022-02-26 19:52:00,,0830.9,5.01,0.00,23.4,22.7,00.0,32.3,25.2,07.4,0000.5,0020.61,0014.54,0013.66
2022-02-26 19:53:00,,0830.9,5.00,0.00,23.4,22.7,00.0,32.3,25.1,07.1,0000.5,0020.55,0014.64,0013.79
2022-02-26 19:54:00,,0830.9,5.00,0.00,23.4,22.7,00.0,32.3,25.1,07.2,0000.6,0020.47,0014.73,0013.90
2022-02-26 19:55:00,,0830.9,4.99,0.00,23.4,22.7,00.0,32.3,25.1,07.1,0000.7,0020.96,0014.84,0014.00
2022-02-26 19:56:00,,0830.9,5.01,0.00,23.4,22.7,00.0,32.3,25.1,07.0,0001.0,0021.10,0014.91,0014.05
2022-02-26 19:57:00,,0830.9,4.99,0.00,23.3,22.7,00.0,32.3,25.1,07.2,0001.1,0021.06,0014.90,0014.08
2022-02-26 19:58:00,,0830.9,5.00,0.00,23.3,22.6,00.0,32.3,25.1,07.3,0000.8,0020.90,0014.93,0014.11
2022-02-26 19:59:00,,0830.9,5.00,0.00,23.3,22.6,00.0,32.3,25.0,07.2,0000.6,0020.39,0015.02,0014.15
